TimeCST,TemperatureF,Dew PointF,Humidity,Sea Level PressureIn,VisibilityMPH,Wind Direction,Wind SpeedMPH,Gust SpeedMPH,PrecipitationIn,Events,Conditions,WindDirDegrees,DateUTC
12:54 AM,28.9,19.9,69,30.12,10.0,SW,3.5,-,N/A,,Clear,230,2012-11-25 06:54:00
1:54 AM,30.9,21.9,69,30.12,10.0,South,5.8,-,N/A,,Clear,180,2012-11-25 07:54:00
2:54 AM,32.0,21.9,66,30.11,10.0,South,6.9,-,N/A,,Clear,180,2012-11-25 08:54:00
3:54 AM,33.1,23.0,66,30.09,10.0,South,5.8,-,N/A,,Clear,180,2012-11-25 09:54:00
4:54 AM,33.1,23.0,66,30.08,10.0,South,6.9,-,N/A,,Clear,170,2012-11-25 10:54:00
5:54 AM,34.0,23.0,64,30.06,10.0,South,6.9,-,N/A,,Clear,190,2012-11-25 11:54:00
6:54 AM,35.1,23.0,61,30.04,10.0,South,11.5,18.4,N/A,,Clear,190,2012-11-25 12:54:00
7:54 AM,36.0,23.0,59,30.05,10.0,SSW,11.5,-,N/A,,Clear,200,2012-11-25 13:54:00
8:54 AM,39.9,25.0,55,30.05,10.0,SW,15.0,-,N/A,,Clear,220,2012-11-25 14:54:00
9:54 AM,45.0,26.1,48,30.04,10.0,SW,12.7,-,N/A,,Clear,220,2012-11-25 15:54:00
10:54 AM,50.0,26.1,39,30.02,10.0,SW,11.5,-,N/A,,Clear,230,2012-11-25 16:54:00
11:54 AM,53.1,26.1,35,29.99,10.0,SW,11.5,-,N/A,,Clear,220,2012-11-25 17:54:00
12:54 PM,55.0,26.1,33,29.96,10.0,WSW,9.2,-,N/A,,Clear,250,2012-11-25 18:54:00
1:54 PM,55.9,27.0,33,29.94,10.0,SW,10.4,-,N/A,,Clear,230,2012-11-25 19:54:00
2:54 PM,55.9,26.1,32,29.94,10.0,West,12.7,-,N/A,,Clear,260,2012-11-25 20:54:00
3:54 PM,53.1,28.9,40,29.97,10.0,WSW,5.8,-,N/A,,Clear,250,2012-11-25 21:54:00
4:54 PM,46.9,27.0,46,29.97,10.0,WSW,4.6,-,N/A,,Clear,240,2012-11-25 22:54:00
5:54 PM,46.0,28.0,50,30.00,10.0,Calm,Calm,-,N/A,,Clear,0,2012-11-25 23:54:00
6:54 PM,39.0,28.9,67,30.01,10.0,Calm,Calm,-,N/A,,Clear,0,2012-11-26 00:54:00
7:54 PM,39.0,28.0,65,30.03,10.0,Calm,Calm,-,N/A,,Clear,0,2012-11-26 01:54:00
8:54 PM,37.0,28.9,73,30.04,10.0,Calm,Calm,-,N/A,,Clear,0,2012-11-26 02:54:00
9:54 PM,35.1,28.0,76,30.06,10.0,Calm,Calm,-,N/A,,Clear,0,2012-11-26 03:54:00
10:54 PM,35.1,28.9,78,30.07,10.0,Calm,Calm,-,N/A,,Clear,0,2012-11-26 04:54:00
11:54 PM,34.0,28.0,79,30.08,10.0,Calm,Calm,-,N/A,,Clear,0,2012-11-26 05:54:00